www.pogodaiklimat.ru

Погода и климат >> Архив погоды >> Индия >> Agra


ПОГОДА в Agra

  • Прогноз погоды в Agra
  • Монитор погоды в Agra
  • Климат города

АРХИВ ПОГОДЫ в Agra

Время (UTC), дата Ветер
(напр.,м/с)
 
Видим.   Явления Облачность Т
(С)
Тd
(С)
f
(%)
Тe
(С)
Тes
(С)
Комфортность P
(гПа)
Po
(гПа)
Тmin
(С)
Tmax
(С)
R
(мм)
R24
(мм)
S
(см)
00 13.07 В 3 4000 м дымка 10/4 300 м
[Sc Ac trans]
+27.3 +27.3 100 +43 +43 опасность
перегрева
996.7 997.0 0.0
03 13.07 СВ 2 4000 м дымка 9/3 300 м
[Cu Sc Ac trans]
+28.7 +28.7 100 +49 +52 опасность
перегрева
997.1 997.0 +27.2 0.0
06 13.07 В 3 4000 м 8/4 300 м
[Cu Sc Ac trans]
+31.5 +31.5 100 +63 +70 опасность
перегрева
997.9 998.0
12 13.07 З 2 4000 м гроза, ливневой дождь 10/5 200 м
[Cb cap Ac trans]
+26.8 +26.8 100 +42 +42 опасность
перегрева
996.4 996.0 +34.9 21
00 14.07 нст 1 4000 м слабый дождь 10/8 200 м
[Frnb Ac trans]
+26.6 +26.6 100 +41 +41 опасность
перегрева
996.5 997.0 24
03 14.07 нст 1 2000 м слабый дождь 10/6 300 м
[Cb cap Ac trans]
+27.8 +27.8 100 +45 +47 опасность
перегрева
997.7 998.0 +26.6 26
06 14.07 С 2 4000 м дымка {гроза, дождь} 10/6 200 м
[Cb cap Ac trans]
+28.5 +28.5 100 +48 +52 опасность
перегрева
997.9 998.0 0.0
12 14.07 В 2 4000 м 6/4 300 м
[Sc Ac trans]
+29.7 +29.7 100 +54 +55 опасность
перегрева
994.1 994.0 +30.7 0.0
03 15.07 В 2 2000 м гроза, ливневой дождь 10/4 200 м
[Cb cap Ac trans]
+28.2 +28.2 100 +47 +49 опасность
перегрева
997.3 997.0 +26.7 +30.7 0.0
06 15.07 нст 1 4000 м {гроза, дождь} 8/4 600 м
[Cb calv Ac trans]
+32.2 +32.2 100 +68 +76 опасность
перегрева
996.1 996.0 20
12 15.07 СЗ 2 4000 м {гроза, дождь} 8/1 600 м
[Cb cap Ac trans]
+30.7 +30.7 100 +59 +60 опасность
перегрева
993.1 993.0 +33.0 23
00 16.07 СВ 2 4000 м дымка 6/1 600 м
[Sc Ac trans Ci fib]
+28.7 +28.7 100 +49 +49 опасность
перегрева
996.5 997.0 44
03 16.07 В 2 4000 м 5/0 600 м
[Ci fib]
+31.3 +31.3 100 +62 +70 опасность
перегрева
997.1 997.0 +27.6 44
06 16.07 СВ 4 4000 м в посл. час туман 6/6 600 м
[]
+34.0 +34.0 100 +79 +85 опасность
перегрева
996.4 996.0
12 16.07 В 4 4000 м 5/4 600 м
[Sc]
+35.1 +31.4 81 +67 +68 опасность
перегрева
992.9 993.0 +36.2
03 17.07 В 1 4000 м 6/1 600 м
[Sc Ac trans]
+31.9 +31.9 100 +66 +72 опасность
перегрева
997.2 997.0 +29.0
06 17.07 СВ 4 4000 м 8/5 600 м
[Sc diur, vesp Ci fib]
+34.9 +34.4 97 +82 +89 опасность
перегрева
997.1 997.0
12 17.07 В 3 4000 м 6/3 600 м
[Sc Ci fib]
+35.9 +27.5 62 +55 +56 опасность
перегрева
993.4 993.0 +37.0
00 18.07 СВ 2 4000 м 8/4 600 м
[Sc Ac trans]
+30.0 +30.0 100 +55 +55 опасность
перегрева
996.8 997.0
03 18.07 В 4 4000 м 9/4 600 м
[Sc Ac trans Ci fib]
+31.3 +31.3 100 +62 +65 опасность
перегрева
998.3 998.0 +29.9 +37.0
06 18.07 СВ 3 4000 м 6/5 600 м
[Sc Ac trans]
+33.6 +28.5 75 +56 +63 опасность
перегрева
998.1 998.0
12 18.07 В 2 4000 м гроза без осадков 6/4 30 м
[Cb cap Ci fib]
+36.2 +27.5 61 +55 +57 опасность
перегрева
994.2 994.0 +37.1
00 19.07 нст 1 4000 м 6/1 600 м
[Sc Ac trans Ci fib]
+27.0 +27.0 100 +42 +42 опасность
перегрева
998.3 998.0 4
03 19.07 С 2 4000 м 8/3 600 м
[Cb cap Ac trans]
+31.2 +27.3 80 +50 +53 опасность
перегрева
999.1 999.0 +26.6 4
06 19.07 нст 1 4000 м {гроза, дождь} 8/4 600 м
[Cb cap Ac trans]
+33.2 +26.6 68 +50 +59 опасность
перегрева
997.9 998.0 140
12 19.07 Ю 2 4000 м гроза без осадков {дождь} 9/5 600 м
[Cb cap Ac trans]
+26.6 +26.6 100 +41 +41 опасность
перегрева
995.5 996.0 +34.4 19

 

Местоположение метеостанции Agra (Uttar Pradesh, Индия): широта 27.15 долгота 77.97 высота над уровнем моря 169 м.

В архиве по умолчанию представлена погода в Agra за последнюю неделю. Архивные данные за месяц целиком и за предыдущие месяцы, начиная с января 2011 года, Вы можете получить, выбрав интересующий диапазон дат из раскрывающегося списка и нажав кнопку "Ввод!".


*Определитесь, кто Вы:
робот инопланетянин человек

Внимание! Время в таблицах - всемирное. Для получения местного времени необходимо прибавить поправку, которая в Agra равна 5.5 ч.

Смотрите также архив погоды в соседних городах и на ближайших метеорологических станциях:

Погода в Gwalior (Madhya Pradesh, Индия) (106 км)
Погода в New Delhi Aya Nagar (Delhi, Индия) (169 км)
Погода в New Delhi (Delhi, Индия) (176 км)
Погода в Ridge (Delhi, Индия) (178 км)
Погода в New Delhi Airport (Delhi, Индия) (179 км)
Погода в Bareilly (Uttar Pradesh, Индия) (196 км)
Погода в Jhansi (Uttar Pradesh, Индия) (200 км)
Погода в Shivpuri (Madhya Pradesh, Индия) (205 км)
Погода в Sheopur (Madhya Pradesh, Индия) (209 км)
Погода в Meerut (Uttar Pradesh, Индия) (209 км)

Пояснения к столбцам:

Ветер - указаны скорость ветра в м/с - средняя за 10 мин, порывы в срок и между сроками (в фигурных скобках) и направление, откуда дует ветер: С - северный, СВ - северо-восточный, В - восточный, ЮВ - юго-восточный, Ю - южный, ЮЗ - юго-западный, З - западный, СЗ - северо-западный.
Видимость - горизонтальная дальность видимости в метрах или километрах. При видимости от 1 до 10 км при отсутствии осадков обычно наблюдается дымка, при ухудшении видимости до 1 км и менее - туман. В сухую погоду видимость может ухудшаться дымом, пылью или мглою.
Явления - указаны атмосферные явления, наблюдавшиеся в срок или в последний час перед сроком; фигурными скобками обозначены явления, наблюдавшиеся между сроками (за 1-3 часа до срока); квадратными скобками обозначены град или гололедные отложения с указанием их диаметра в мм.
Облачность - указаны через наклонную черту общая и нижняя облачность в баллах и высота нижней границы облаков в метрах; квадратными скобками обозначены формы облаков: Ci - перистые, Cs - перисто-слоистые, Cc - перисто-кучевые, Ac - высококучевые, As - высокослоистые, Sc - слоисто-кучевые, Ns - слоисто-дождевые, Cu - кучевые, Cb - кучево-дождевые. Подробнее классификацию облаков см. в Атласе облаков (PDF).
T - Температура воздуха - температура, измеренная на высоте 2 м над землей.
Td - Температура точки росы - температура, при понижении до которой содержащийся в воздухе водяной пар достигнет насыщения.
f - Относительная влажность воздуха - влажноcть воздуха, измеренная на высоте 2 м над землей.
Te - Эффективная температура - температура, которую ощущает одетый по сезону человек в тени. Характеристика душности погоды. При расчете учитывается влияние влажности воздуха и скорости ветра на теплоощущения человека.
Tes - Эффективная температура на солнце - температура, которую ощущает человек, с поправкой на солнечный нагрев. Характеристика знойности погоды. Зависит от высоты солнца над горизонтом, облачности и скорости ветра. Ночью, в пасмурную погоду, а также при ветре 12 м/с и более поправка равна нулю.
P - Атмосферное давление - приведенное к уровню моря атмосферное давление.
Po - Атмосферное давление - измеренное на уровне метеостанции атмосферное давление.
Tmin - Минимальная температура - минимум температуры воздуха на высоте 2 м над землей.
Tmax - Максимальная температура - максимум температуры воздуха на высоте 2 м над землей.
R - Количество осадков - Количество выпавших осадков за период времени, мм. При наведении курсора мыши на число - период времени, за который выпало указанное количество осадков.
R24 - Количество осадков - Количество выпавших осадков за 24 часа, мм.
S - Снежный покров - Высота снежного покрова, см. При наведении курсора мыши на число - состояние снежного покрова и степень покрытия местности в баллах.